Temperature
22 22 21 21 20 20 22 23 24 23 23 24 23 22 21 21 20 19 20 20 20 20 20 20 20 20 20 20 20 20 20 20 20 20 20 20 20 20 20 20 20 20 19 19 19 19 19 19 19
23 23 22 22 20 20 22 23 23 24 24 24 23 22 21 21 20 20 20 20 20 20 20 20 20 20 20 20 20 20 20 20 20 20 20 20 20 20 20 20 20 20 19 19 19 19 19 19 19
23 23 22 20 21 21 22 23 23 24 24 24 22 22 21 20 20 20 20 20 20 20 20 20 20 20 20 20 20 20 20 20 20 20 20 20 20 20 20 20 20 20 19 19 19 19 19 19 19
23 23 22 21 22 22 22 22 23 24 23 23 22 21 20 20 20 20 20 20 20 20 20 20 20 20 20 20 20 20 20 20 20 20 20 20 20 20 20 20 19 19 19 19 19 19 19 19 19
24 23 20 21 22 22 21 23 23 22 22 21 21 20 20 20 20 20 20 20 20 20 20 20 20 20 20 20 20 20 20 20 20 20 20 20 19 19 19 19 19 19 19 19 19 19 19 19 19
24 21 20 20 21 21 21 22 22 21 21 21 21 20 19 20 20 20 20 20 20 20 20 20 20 20 20 20 20 20 20 20 20 19 19 19 19 19 19 19 19 19 19 19 19 19 19 19 19
23 20 20 21 20 21 22 22 21 20 20 20 21 20 20 20 20 20 20 20 20 20 19 19 19 19 19 19 19 19 19 19 19 19 19 19 19 19 19 19 19 19 19 19 19 19 19 19 19
24 20 20 20 20 21 22 22 21 20 20 20 20 19 19 19 19 19 19 19 19 19 19 19 19 19 19 19 19 19 19 19 19 19 19 19 19 19 19 19 19 19 19 19 19 19 19 19 19
24 19 19 20 20 20 21 21 20 20 20 19 19 19 19 19 19 19 19 19 19 19 19 19 18 18 18 19 19 19 19 19 19 19 19 19 19 19 19 19 19 19 19 19 19 19 19 19 19
23 19 20 20 20 19 20 20 20 19 19 19 19 19 19 19 19 19 19 18 18 18 18 18 18 18 18 18 18 18 18 18 18 18 19 19 19 19 19 18 18 18 18 18 18 19 19 19 19
22 20 21 21 21 20 20 19 19 19 18 19 19 19 19 19 19 19 18 18 18 18 18 18 18 18 18 18 18 18 18 18 18 18 18 18 18 18 18 18 18 18 18 18 18 19 19 19 18
21 21 22 22 22 21 20 19 19 19 19 19 19 19 19 19 18 18 18 18 17 17 17 17 17 17 17 17 17 17 17 17 18 18 18 18 18 18 18 18 18 18 18 18 18 18 19 18 18
21 21 21 21 21 20 20 19 19 19 19 19 19 19 19 18 18 18 18 17 17 17 17 16 16 16 17 17 17 17 17 17 17 17 17 17 18 18 18 18 18 18 18 18 18 18 18 18 18
23 22 21 21 21 20 19 19 19 19 20 19 19 19 18 18 18 18 17 17 17 16 16 16 16 16 16 16 16 16 16 16 17 17 17 17 17 17 18 18 18 18 18 18 18 18 18 18 18
23 21 21 21 20 20 20 18 19 20 20 19 19 19 18 18 17 17 17 16 16 16 16 15 15 15 15 15 15 15 16 16 16 16 17 17 17 17 17 17 17 17 18 18 18 18 18 18 18
23 21 20 21 20 20 19 17 19 20 20 19 19 18 18 17 17 17 16 16 16 15 15 15 15 15 15 15 15 15 15 15 16 16 16 16 16 16 17 17 17 17 17 17 17 18 18 18 18
21 20 20 21 21 20 19 18 19 20 19 18 18 18 17 17 17 16 16 16 15 15 15 14 14 14 14 14 14 15 15 15 15 15 15 16 16 16 16 16 17 17 17 17 17 17 17 18 18
22 21 21 20 21 20 18 17 18 19 19 18 18 18 17 17 16 16 16 15 15 15 14 14 14 14 14 14 14 14 15 15 15 15 15 15 16 16 16 16 16 17 17 17 17 17 17 17 18
23 22 21 21 21 20 18 17 17 18 18 18 18 17 17 16 16 16 16 15 15 14 14 14 14 13 13 13 13 14 14 14 14 14 15 15 15 15 16 16 16 16 16 17 17 17 17 17 17
22 21 20 21 22 20 18 17 17 18 18 18 18 17 17 16 16 16 15 15 15 14 14 14 13 13 13 13 13 13 13 13 14 14 14 14 15 15 15 15 16 16 16 16 16 17 17 17 17
22 21 21 21 21 20 18 17 17 17 18 18 17 17 17 16 16 15 15 15 14 14 14 13 13 13 13 13 13 13 13 13 14 14 14 14 14 15 15 15 15 16 16 16 16 16 17 17 17
22 23 22 21 19 17 18 16 16 16 17 17 17 17 16 16 16 15 15 15 14 14 14 13 13 13 13 13 12 12 12 13 13 13 13 14 14 14 15 15 15 15 15 16 16 16 16 16 16
22 23 22 21 19 18 17 16 15 16 16 16 16 16 16 16 16 15 15 15 14 14 14 13 13 13 13 12 12 12 12 12 12 13 13 13 14 14 14 14 15 15 15 15 16 16 16 16 16
22 20 19 17 16 17 18 16 15 14 16 16 16 16 16 16 16 15 15 15 14 14 14 13 13 13 13 12 12 12 12 12 12 13 13 13 13 14 14 14 14 15 15 15 15 15 15 16 16
20 17 17 17 16 16 17 16 15 16 16 17 16 17 16 16 16 15 15 15 14 14 14 13 13 13 13 12 12 12 12 12 12 12 12 13 13 13 14 14 14 14 15 15 15 15 15 15 16
20 17 17 18 17 16 17 16 16 17 18 18 17 17 16 16 16 15 15 14 14 14 13 13 13 13 13 12 12 12 12 12 12 12 12 12 13 13 13 13 14 14 14 14 15 15 15 15 15
21 18 17 16 17 17 16 16 17 17 16 17 16 16 16 16 16 15 15 14 14 14 13 13 13 13 12 12 12 12 12 12 12 12 12 12 12 13 13 13 14 14 14 14 14 15 15 15 15
21 19 16 17 17 17 17 16 14 16 16 16 16 16 16 16 16 15 15 15 14 14 13 13 13 13 12 12 12 12 12 12 12 12 12 12 12 12 12 13 13 13 14 14 14 14 15 15 15
21 20 17 15 15 16 16 16 16 15 15 15 16 16 16 16 16 15 15 15 14 14 14 13 13 13 12 12 12 12 12 12 12 12 12 12 12 12 12 12 13 13 13 14 14 14 14 14 14
21 20 17 17 17 15 14 15 17 16 16 17 17 17 17 16 16 15 15 15 14 14 14 13 13 12 12 12 12 12 12 12 12 12 12 12 12 12 12 12 13 13 13 13 13 13 14 14 14
Wind_Speed
7 4 2 1 4 5 5 3 4 7 7 8 12 12 9 7 5 5 2 10 13 11 12 12 11 10 10 9 9 9 8 8 8 8 7 7 7 7 7 7 7 6 6 6 6 6 6 6 5
4 3 1 2 6 5 4 4 8 7 7 8 11 10 8 7 6 6 4 9 12 13 12 12 12 10 10 9 8 8 8 7 7 7 6 6 6 6 5 5 5 6 6 6 6 5 5 5 4
3 2 2 4 4 4 3 4 8 9 9 7 6 7 5 4 4 3 6 11 11 11 12 12 12 11 10 8 8 7 7 7 6 6 6 6 6 6 5 5 5 5 5 5 5 5 5 4 4
2 3 4 6 6 3 4 3 6 7 9 9 7 7 5 4 3 4 9 11 11 9 12 13 13 11 10 9 8 7 7 7 6 6 6 6 6 6 6 5 5 4 5 5 5 4 4 3 3
3 5 6 5 6 5 5 7 11 11 6 9 10 7 5 6 6 9 9 9 9 7 10 12 12 11 10 9 8 8 8 8 8 8 7 7 7 7 7 6 6 5 5 5 5 4 4 4 3
4 5 5 4 5 4 5 7 11 12 9 7 7 5 3 5 7 6 7 7 6 6 6 8 10 10 9 9 9 9 9 9 9 9 9 9 9 8 8 8 7 7 6 6 6 5 5 5 4
5 5 3 3 3 3 2 5 8 8 8 6 4 5 2 6 5 5 6 6 4 4 4 3 4 6 8 9 10 11 11 12 12 12 11 11 11 10 10 10 9 9 8 8 7 7 6 6 6
5 5 3 2 2 2 4 4 7 8 6 5 5 5 2 3 3 5 6 6 5 4 3 1 1 3 6 8 11 12 13 14 14 14 14 13 13 12 12 12 12 11 11 10 10 9 8 8 7
5 5 3 2 3 0 4 4 6 7 8 7 6 5 2 2 5 8 7 7 6 6 3 2 2 3 5 7 9 12 14 15 15 15 15 15 13 13 13 13 14 14 13 13 12 11 10 10 9
5 4 4 4 5 5 5 6 5 6 8 7 6 6 6 7 9 9 8 7 6 6 5 3 2 3 4 5 7 8 10 12 13 13 13 13 13 13 14 14 17 16 16 15 14 13 12 11 9
5 5 4 3 6 6 5 6 5 6 6 3 3 4 6 8 9 8 7 6 6 5 6 6 4 5 5 4 5 5 6 8 10 12 12 12 11 11 12 11 13 14 15 13 12 12 11 9 8
6 4 4 5 6 5 5 5 5 5 3 2 3 4 6 8 7 7 7 6 6 6 6 6 5 5 6 6 5 4 4 5 6 9 10 9 6 6 7 7 9 10 10 9 9 8 9 10 10
6 6 8 10 13 10 10 7 6 2 2 3 4 6 7 7 6 6 6 7 7 7 8 7 6 6 5 4 4 4 4 5 6 7 8 8 5 5 5 5 7 8 9 8 7 7 7 7 8
7 9 10 9 10 6 10 5 4 1 2 5 6 6 6 7 6 7 8 8 8 8 8 8 7 7 6 5 4 4 5 6 7 6 8 8 7 5 5 6 5 6 9 10 8 7 7 7 6
8 8 6 4 5 6 8 6 2 2 4 6 5 6 7 7 7 7 6 6 7 6 7 8 8 7 7 6 6 6 6 6 5 6 7 7 7 6 4 5 5 6 9 10 7 6 5 5 6
5 5 3 4 5 6 7 4 2 2 6 5 5 6 7 6 5 5 5 5 6 6 6 7 9 8 8 7 6 5 7 6 5 7 7 7 6 6 4 4 5 7 7 5 5 4 4 5 5
2 2 4 3 4 4 5 5 4 3 8 6 6 6 6 5 5 5 5 5 5 6 6 7 7 8 8 7 6 6 6 5 6 7 6 6 6 6 5 4 5 6 5 5 6 5 4 4 5
4 3 3 4 3 5 6 5 4 4 7 6 6 5 4 4 3 3 4 5 5 5 6 7 7 8 7 6 5 5 6 5 5 5 6 7 6 7 5 5 5 5 5 5 5 5 4 4 4
3 3 3 3 4 5 6 6 5 3 5 6 5 4 3 2 2 4 5 5 5 6 6 6 7 7 6 5 5 5 6 6 6 5 7 7 7 6 5 5 5 5 6 7 7 5 5 4 3
5 6 4 0 2 4 5 3 3 3 4 5 5 3 2 2 3 4 5 5 5 5 6 6 6 7 6 5 4 4 5 5 5 6 6 7 7 6 5 5 5 5 5 6 7 6 4 4 4
5 5 5 4 1 4 6 2 1 1 2 3 4 3 2 2 1 3 4 5 5 6 6 6 7 7 7 7 5 6 5 5 4 6 5 6 6 6 5 5 5 5 5 6 7 8 8 6 4
1 1 3 5 4 2 5 2 4 3 0 2 2 1 0 1 0 2 4 5 6 6 6 6 7 7 8 7 6 6 5 5 6 6 6 7 6 5 5 5 5 6 5 6 7 7 6 7 6
4 1 1 2 3 1 1 4 4 2 2 3 3 3 1 1 1 3 4 5 5 6 6 6 7 7 8 8 7 6 6 6 6 6 7 7 6 5 5 4 4 5 5 6 6 6 7 6 7
2 6 7 6 5 2 3 5 5 4 6 4 4 3 2 1 2 4 5 5 6 6 6 7 7 7 8 8 8 7 8 8 8 8 7 6 5 4 5 4 3 4 4 5 6 6 8 8 7
7 6 5 5 4 4 1 4 5 5 5 5 6 4 3 2 2 4 5 5 6 7 7 7 7 8 9 9 8 8 8 8 8 7 6 6 5 4 5 4 3 3 4 4 5 6 7 8 8
1 7 6 3 4 4 3 2 5 4 4 5 5 4 2 2 3 3 4 4 6 7 7 7 7 7 8 8 8 7 8 6 5 6 5 5 5 5 5 4 3 3 3 4 4 4 6 6 8
2 2 7 6 1 1 2 2 3 1 2 3 3 2 2 3 3 2 3 4 5 6 7 6 7 7 8 8 8 7 8 7 7 7 6 5 5 5 5 5 4 3 2 2 3 4 5 5 7
3 4 6 3 1 2 3 4 5 7 6 5 5 4 3 2 2 2 3 4 4 5 6 6 6 6 6 8 7 7 8 8 7 7 7 7 7 6 6 6 5 3 2 2 1 2 4 5 5
1 2 4 4 4 4 3 6 6 9 8 7 7 6 5 3 2 3 4 4 4 5 5 6 6 6 6 7 7 8 8 8 8 7 7 7 7 7 6 6 5 4 3 2 1 0 2 4 5
4 4 5 3 2 3 3 6 4 9 9 8 8 6 5 3 3 3 3 4 4 5 6 5 5 5 6 6 7 7 8 8 8 8 8 7 7 7 7 6 6 5 4 3 2 1 0 2 4
Wind_Direction
181 162 117 95 54 49 52 29 70 64 54 64 73 79 77 58 80 117 158 142 140 147 151 148 144 140 137 135 132 130 130 129 127 126 125 123 120 118 116 114 112 110 106 108 105 101 96 94 88
135 143 155 57 76 68 28 29 67 78 118 106 75 72 71 61 69 93 107 144 145 149 153 152 150 146 144 143 141 138 138 137 136 135 134 133 131 130 130 128 124 120 114 113 112 110 109 101 93
133 182 82 57 80 108 84 46 81 78 69 70 73 51 56 61 66 103 160 155 147 150 155 156 156 155 154 153 153 152 151 152 152 153 153 152 151 150 150 148 143 138 134 130 126 125 124 117 108
109 48 42 62 71 55 86 78 81 77 53 45 82 64 48 36 60 122 145 153 149 152 157 162 163 164 166 167 167 170 172 174 175 175 175 175 174 173 172 170 167 160 156 153 149 147 146 142 131
67 61 48 55 56 41 52 64 71 70 66 60 76 84 54 15 70 110 129 138 143 153 163 167 168 172 177 181 185 186 190 194 196 195 197 197 196 194 191 189 189 185 176 171 169 172 175 174 173
61 64 65 60 49 28 31 49 73 74 77 67 74 89 54 19 61 96 108 113 127 142 157 171 179 182 188 195 200 203 205 208 211 212 212 212 208 206 204 201 200 199 197 192 191 194 198 201 202
107 96 91 95 83 28 35 60 57 68 56 28 26 84 62 20 38 79 91 95 96 105 123 150 189 201 210 214 214 217 218 218 219 220 221 221 219 217 214 211 207 206 206 204 205 207 212 216 218
120 100 78 54 81 21 352 55 62 51 49 25 37 73 51 336 12 58 72 70 65 65 60 42 259 241 239 235 230 230 230 228 225 224 224 225 226 226 224 220 216 213 212 213 213 214 220 225 229
85 81 113 189 163 103 359 71 67 51 66 55 56 82 96 31 51 52 50 39 34 35 28 22 331 308 290 266 252 246 241 238 234 231 229 228 228 229 229 228 224 221 218 218 217 218 223 228 234
80 113 181 190 155 133 56 53 85 65 52 44 47 51 54 50 53 52 44 32 25 18 11 12 345 324 311 299 290 272 257 250 244 236 232 230 227 227 231 232 231 228 224 222 221 222 225 230 236
86 135 153 135 144 132 96 57 45 103 55 40 62 47 47 53 51 49 40 31 16 9 6 360 356 347 335 319 313 291 279 272 261 251 242 236 232 231 233 230 234 232 228 224 223 224 224 224 229
90 68 119 124 128 105 94 99 70 72 136 166 113 82 67 59 51 47 37 24 13 15 4 -0 1 1 354 350 332 319 301 284 271 264 253 238 232 228 227 223 222 219 215 211 214 216 223 225 230
111 115 99 102 95 97 99 100 106 88 158 128 94 78 70 67 57 47 41 32 21 13 1 355 2 6 1 355 338 339 317 302 290 281 269 248 234 235 232 224 218 217 210 208 213 216 219 224 229
133 126 125 121 113 108 107 101 96 151 138 104 96 85 76 70 60 46 34 25 17 10 360 355 0 6 1 353 338 326 325 318 313 298 283 265 243 234 228 224 215 215 213 213 214 215 216 221 222
115 114 110 118 116 135 107 63 71 180 113 100 97 84 75 66 58 52 38 27 17 7 2 359 359 5 353 343 335 335 323 320 309 303 299 285 264 247 236 225 216 218 217 215 215 222 216 223 225
93 101 149 192 161 163 112 119 255 129 111 93 81 77 70 59 55 45 38 31 22 13 3 356 0 355 344 337 329 325 324 321 309 306 307 297 277 257 240 236 226 216 209 206 205 215 220 226 218
102 168 209 203 182 144 120 161 216 122 105 96 89 85 79 62 42 33 34 34 22 10 357 350 346 345 340 334 324 320 320 317 311 306 300 294 283 262 238 237 235 219 203 200 208 205 204 213 214
226 209 192 195 182 127 131 165 188 141 118 114 104 90 79 63 30 13 22 21 15 2 354 346 340 338 335 331 325 321 321 314 309 303 296 291 283 270 244 233 234 219 208 204 203 200 199 205 205
178 144 145 183 169 131 148 161 185 153 116 112 106 93 79 52 356 11 12 9 6 354 347 342 337 332 336 335 331 325 320 312 310 302 298 294 288 274 248 244 231 220 214 212 203 196 196 198 175
88 102 109 139 170 129 141 164 194 168 152 148 138 123 89 42 13 3 2 358 349 338 334 334 332 326 328 322 309 290 291 292 291 297 302 299 294 282 267 241 229 221 219 215 205 195 187 191 176
79 130 168 190 98 86 111 32 268 242 118 118 126 136 121 98 40 340 340 339 333 330 329 333 321 322 321 320 316 318 313 306 311 313 310 298 296 286 271 248 232 222 210 214 211 200 186 189 187
154 184 155 143 123 229 160 204 256 223 175 137 156 152 122 85 293 310 324 327 324 319 321 319 319 322 321 322 325 325 322 311 298 297 295 299 294 288 280 254 233 225 216 215 214 207 197 180 183
203 248 51 119 135 346 114 145 269 188 213 229 214 207 215 199 234 298 310 315 316 315 318 318 324 322 320 323 324 322 316 301 299 302 305 309 304 295 290 266 238 227 220 219 218 210 201 191 182
82 38 33 49 69 333 243 160 239 222 209 208 210 211 232 251 287 307 317 324 318 318 320 325 330 321 321 326 328 330 323 319 322 323 320 318 313 305 307 285 255 236 225 222 221 218 209 203 190
66 69 29 7 10 264 261 131 236 229 197 182 185 202 229 262 285 309 324 324 319 321 324 329 331 325 327 332 334 335 331 327 325 324 324 325 325 319 317 310 282 256 238 230 222 222 214 203 194
143 134 146 195 235 281 358 202 250 221 179 162 168 187 219 267 285 303 311 310 312 319 325 328 330 329 332 337 336 335 335 332 329 328 329 328 324 312 314 316 303 279 255 239 222 222 212 201 199
93 126 167 143 176 322 293 289 304 228 184 176 177 180 222 268 284 294 307 314 317 322 321 321 326 332 335 337 338 339 342 341 339 338 341 339 332 334 340 335 327 313 288 255 224 219 209 199 200
145 141 83 97 127 308 290 239 228 213 213 198 192 203 230 266 283 291 303 311 313 315 322 332 334 334 335 341 344 354 346 344 342 345 350 350 348 350 352 353 354 351 344 328 258 228 207 197 200
43 68 97 115 152 161 269 268 222 192 192 190 199 207 216 229 245 264 285 302 313 320 332 339 339 345 346 346 346 354 352 352 354 357 354 351 352 354 359 357 360 360 356 349 351 237 189 192 192
158 152 136 141 239 173 195 266 253 180 185 184 192 204 211 219 230 248 279 312 322 324 330 335 340 348 344 348 355 358 353 357 0 358 355 357 358 359 2 4 6 6 7 7 19 9 179 182 187
Height
1540 1540 1540 1541 1544 1551 1552 1545 1538 1536 1537 1537 1536 1537 1542 1545 1549 1556 1552 1551 1552 1553 1553 1554 1555 1555 1556 1556 1556 1556 1556 1556 1556 1556 1556 1556 1556 1557 1557 1557 1557 1556 1556 1556 1556 1556 1556 1556 1556
1541 1540 1542 1542 1550 1563 1557 1545 1541 1539 1540 1538 1539 1541 1543 1547 1549 1551 1551 1553 1553 1554 1554 1555 1555 1555 1556 1556 1556 1556 1556 1556 1556 1556 1556 1556 1556 1556 1556 1556 1556 1556 1556 1556 1556 1556 1556 1556 1556
1541 1541 1543 1545 1553 1560 1555 1546 1542 1540 1541 1539 1542 1545 1547 1551 1552 1552 1552 1553 1554 1554 1555 1555 1555 1556 1556 1556 1556 1556 1556 1556 1555 1555 1555 1555 1555 1555 1555 1555 1555 1555 1555 1555 1555 1555 1556 1556 1556
1542 1543 1544 1550 1556 1551 1549 1546 1541 1541 1542 1543 1544 1549 1552 1554 1553 1553 1553 1554 1555 1555 1555 1555 1556 1556 1556 1556 1556 1556 1555 1555 1555 1555 1555 1555 1554 1554 1554 1554 1554 1554 1554 1554 1555 1555 1555 1555 1556
1542 1544 1551 1558 1557 1553 1549 1546 1543 1544 1546 1549 1547 1552 1555 1556 1555 1554 1554 1555 1555 1555 1555 1555 1556 1556 1555 1555 1555 1555 1555 1555 1554 1554 1554 1554 1554 1553 1553 1553 1553 1553 1554 1554 1554 1554 1554 1555 1555
1545 1548 1562 1567 1562 1556 1553 1550 1547 1549 1551 1552 1552 1554 1558 1558 1556 1556 1556 1556 1556 1555 1555 1555 1555 1555 1555 1555 1555 1554 1554 1554 1553 1553 1553 1552 1552 1552 1552 1552 1552 1552 1552 1553 1553 1553 1554 1554 1554
1547 1553 1563 1564 1563 1559 1555 1553 1552 1553 1553 1555 1555 1556 1559 1559 1558 1557 1556 1556 1556 1556 1555 1555 1555 1554 1554 1554 1553 1553 1553 1552 1552 1552 1551 1551 1551 1551 1551 1551 1551 1551 1551 1552 1552 1552 1552 1553 1554
1546 1553 1562 1564 1564 1561 1556 1554 1556 1555 1557 1558 1557 1558 1560 1561 1560 1558 1557 1557 1556 1556 1555 1554 1554 1553 1553 1552 1552 1551 1551 1550 1550 1549 1549 1549 1549 1549 1549 1549 1549 1549 1550 1550 1550 1551 1551 1552 1552
1546 1557 1567 1565 1563 1562 1558 1557 1559 1561 1560 1560 1560 1561 1562 1561 1560 1559 1558 1558 1557 1556 1555 1554 1553 1552 1551 1550 1549 1548 1548 1548 1547 1547 1547 1547 1547 1547 1547 1547 1547 1547 1548 1548 1549 1549 1550 1550 1551
1546 1560 1560 1557 1557 1560 1559 1559 1561 1563 1562 1563 1563 1563 1563 1562 1561 1560 1559 1558 1557 1556 1554 1553 1552 1551 1549 1548 1547 1546 1545 1545 1544 1544 1544 1544 1544 1544 1545 1545 1545 1545 1546 1547 1547 1548 1548 1549 1550
1547 1555 1555 1556 1557 1558 1560 1561 1562 1564 1565 1565 1565 1565 1564 1563 1562 1561 1560 1559 1557 1556 1554 1552 1551 1549 1548 1546 1544 1543 1542 1542 1541 1541 1541 1541 1541 1541 1542 1542 1542 1543 1544 1544 1545 1546 1547 1548 1549
1550 1553 1554 1556 1557 1559 1560 1563 1565 1565 1567 1566 1566 1565 1564 1563 1562 1561 1560 1559 1557 1555 1553 1551 1549 1547 1545 1544 1542 1541 1540 1539 1538 1537 1537 1537 1537 1538 1538 1539 1540 1540 1541 1542 1543 1544 1545 1546 1547
1551 1555 1556 1557 1558 1560 1561 1563 1565 1567 1567 1567 1566 1565 1565 1564 1563 1562 1560 1558 1556 1554 1552 1550 1548 1545 1543 1541 1539 1537 1536 1535 1534 1534 1533 1533 1533 1534 1534 1535 1536 1537 1538 1540 1541 1541 1543 1544 1545
1549 1553 1557 1559 1559 1562 1563 1565 1566 1567 1567 1567 1566 1566 1565 1564 1563 1561 1560 1558 1555 1553 1551 1548 1546 1543 1540 1538 1536 1534 1532 1531 1530 1529 1529 1529 1529 1529 1530 1530 1532 1533 1535 1537 1538 1539 1541 1542 1543
1550 1555 1559 1560 1560 1563 1564 1569 1568 1567 1567 1567 1567 1566 1565 1565 1563 1561 1559 1557 1555 1552 1549 1546 1544 1541 1538 1535 1533 1530 1528 1527 1525 1524 1524 1524 1524 1525 1525 1526 1527 1528 1531 1533 1535 1536 1538 1539 1541
1552 1558 1564 1560 1560 1561 1566 1575 1569 1567 1567 1567 1567 1566 1566 1565 1563 1561 1559 1557 1554 1551 1548 1545 1542 1538 1535 1532 1529 1527 1525 1523 1521 1520 1519 1518 1519 1519 1519 1520 1522 1523 1525 1527 1529 1532 1534 1536 1537
1558 1565 1565 1561 1557 1559 1564 1571 1568 1567 1566 1567 1567 1566 1565 1564 1563 1561 1558 1556 1553 1550 1546 1543 1540 1536 1532 1529 1526 1524 1521 1519 1517 1515 1514 1513 1513 1514 1514 1515 1516 1519 1520 1522 1525 1527 1529 1532 1534
1561 1562 1562 1562 1558 1559 1565 1568 1566 1566 1566 1566 1566 1566 1565 1563 1562 1560 1557 1554 1551 1548 1545 1541 1537 1534 1530 1526 1523 1520 1518 1515 1513 1511 1509 1508 1508 1508 1509 1510 1511 1513 1516 1518 1520 1522 1525 1528 1530
1549 1555 1560 1559 1555 1559 1565 1567 1566 1566 1566 1566 1566 1565 1564 1563 1562 1559 1556 1553 1550 1547 1543 1539 1535 1531 1527 1523 1519 1516 1513 1511 1508 1506 1505 1504 1503 1503 1503 1504 1506 1508 1510 1512 1515 1518 1520 1523 1526
1549 1557 1560 1558 1554 1560 1567 1569 1567 1566 1565 1565 1565 1565 1564 1563 1561 1558 1555 1552 1549 1545 1541 1538 1534 1530 1526 1522 1518 1514 1511 1507 1505 1502 1500 1499 1498 1498 1498 1499 1500 1502 1504 1507 1510 1512 1515 1518 1521
1553 1557 1559 1560 1557 1560 1567 1574 1570 1567 1566 1566 1565 1565 1563 1562 1560 1557 1554 1551 1548 1544 1540 1536 1532 1528 1524 1520 1516 1512 1508 1504 1501 1498 1496 1495 1494 1493 1493 1493 1495 1497 1499 1501 1503 1506 1510 1512 1516
1556 1550 1551 1555 1565 1573 1569 1585 1575 1569 1568 1566 1566 1564 1563 1561 1559 1556 1553 1550 1547 1543 1539 1535 1531 1527 1523 1518 1514 1509 1505 1501 1498 1495 1492 1491 1489 1489 1488 1488 1489 1491 1493 1495 1498 1501 1504 1507 1510
1550 1546 1550 1554 1562 1570 1571 1581 1579 1570 1570 1567 1565 1564 1562 1560 1558 1556 1553 1550 1546 1542 1538 1534 1530 1526 1521 1517 1512 1507 1503 1499 1495 1492 1489 1487 1486 1485 1484 1484 1485 1486 1488 1490 1493 1495 1498 1501 1504
1546 1551 1556 1563 1571 1581 1571 1579 1580 1573 1567 1565 1564 1563 1561 1560 1557 1555 1552 1549 1546 1542 1538 1533 1529 1525 1520 1516 1511 1506 1501 1497 1493 1489 1486 1484 1483 1481 1481 1481 1481 1482 1484 1485 1487 1489 1492 1495 1499
1551 1567 1582 1582 1590 1585 1569 1574 1576 1564 1562 1562 1562 1562 1560 1559 1557 1554 1551 1548 1545 1541 1537 1533 1528 1524 1520 1515 1510 1505 1501 1496 1492 1488 1485 1482 1480 1479 1478 1478 1478 1478 1479 1481 1482 1484 1486 1489 1493
1554 1565 1583 1590 1592 1584 1572 1576 1571 1561 1560 1560 1561 1561 1559 1558 1556 1553 1551 1547 1544 1540 1536 1532 1528 1524 1519 1514 1509 1505 1500 1496 1491 1488 1484 1482 1479 1478 1476 1476 1475 1475 1476 1476 1478 1479 1481 1484 1488
1554 1561 1563 1577 1578 1584 1580 1573 1566 1562 1561 1561 1560 1560 1559 1557 1555 1553 1550 1547 1543 1540 1536 1532 1528 1523 1519 1514 1509 1505 1500 1496 1492 1488 1484 1482 1479 1477 1475 1474 1473 1473 1473 1473 1474 1475 1477 1480 1482
1550 1555 1568 1575 1584 1590 1580 1576 1576 1564 1562 1560 1559 1558 1557 1556 1554 1552 1549 1546 1543 1540 1536 1532 1528 1524 1519 1514 1510 1505 1501 1496 1492 1489 1485 1482 1479 1477 1475 1473 1472 1471 1471 1471 1471 1472 1473 1476 1478
1553 1556 1565 1576 1580 1589 1590 1580 1558 1557 1557 1557 1557 1556 1556 1555 1553 1551 1549 1546 1543 1540 1536 1532 1528 1524 1519 1515 1510 1506 1501 1497 1493 1489 1486 1483 1480 1477 1475 1473 1471 1470 1469 1468 1469 1469 1471 1472 1475
1550 1554 1563 1575 1576 1580 1587 1578 1551 1552 1553 1554 1555 1555 1554 1553 1552 1550 1548 1546 1543 1539 1536 1532 1528 1524 1520 1516 1511 1507 1503 1498 1494 1491 1487 1484 1481 1478 1476 1473 1471 1469 1468 1467 1467 1468 1469 1470 1472